Time,TemperatureF,DewpointF,PressureIn,WindDirection,WindDirectionDegrees,WindSpeedMPH,WindSpeedGustMPH,Humidity,HourlyPrecipIn,Conditions,Clouds,dailyrainin,SoftwareType,DateUTC
2013-05-23 00:12:00,33.0,-99.9,29.95,East,101,9.0,12.0,-999,-99.99,,,-99.99,,2013-05-23 08:12:00,
2013-05-23 00:22:00,33.0,-99.9,29.95,East,101,10.0,12.0,-999,-99.99,,,-99.99,,2013-05-23 08:22:00,
2013-05-23 00:32:00,33.0,-99.9,29.95,ESE,103,9.0,12.0,-999,-99.99,,,-99.99,,2013-05-23 08:32:00,
2013-05-23 00:42:00,34.0,-99.9,29.95,ESE,103,10.0,12.0,-999,-99.99,,,-99.99,,2013-05-23 08:42:00,
2013-05-23 00:52:00,34.0,-99.9,29.95,ESE,107,9.0,11.0,-999,-99.99,,,-99.99,,2013-05-23 08:52:00,
2013-05-23 01:02:00,33.0,-99.9,29.96,East,101,9.0,11.0,-999,-99.99,,,-99.99,,2013-05-23 09:02:00,
2013-05-23 01:11:00,34.0,-99.9,29.96,ESE,105,9.0,11.0,-999,-99.99,,,-99.99,,2013-05-23 09:11:00,
2013-05-23 01:22:00,33.0,-99.9,29.96,East,101,9.0,13.0,-999,-99.99,,,-99.99,,2013-05-23 09:22:00,
2013-05-23 01:33:00,34.0,-99.9,29.96,ESE,114,10.0,13.0,-999,-99.99,,,-99.99,,2013-05-23 09:33:00,
2013-05-23 01:42:00,33.0,-99.9,29.96,East,101,11.0,13.0,-999,-99.99,,,-99.99,,2013-05-23 09:42:00,
2013-05-23 01:53:00,34.0,-99.9,29.96,ESE,108,10.0,13.0,-999,-99.99,,,-99.99,,2013-05-23 09:53:00,
2013-05-23 02:03:00,33.0,-99.9,29.96,East,95,10.0,12.0,-999,-99.99,,,-99.99,,2013-05-23 10:03:00,
2013-05-23 02:13:00,34.0,-99.9,29.96,East,101,9.0,12.0,-999,-99.99,,,-99.99,,2013-05-23 10:13:00,
2013-05-23 02:22:00,34.0,-99.9,29.96,East,95,11.0,13.0,-999,-99.99,,,-99.99,,2013-05-23 10:22:00,
2013-05-23 02:32:00,34.0,-99.9,29.96,East,96,11.0,13.0,-999,-99.99,,,-99.99,,2013-05-23 10:32:00,
2013-05-23 02:42:00,34.0,-99.9,29.96,East,95,11.0,13.0,-999,-99.99,,,-99.99,,2013-05-23 10:42:00,
2013-05-23 02:52:00,34.0,-99.9,29.96,East,97,11.0,13.0,-999,-99.99,,,-99.99,,2013-05-23 10:52:00,
2013-05-23 03:02:00,34.0,-99.9,29.96,East,96,11.0,13.0,-999,-99.99,,,-99.99,,2013-05-23 11:02:00,
2013-05-23 03:12:00,34.0,-99.9,29.96,East,93,11.0,13.0,-999,-99.99,,,-99.99,,2013-05-23 11:12:00,
2013-05-23 03:22:00,34.0,-99.9,29.96,East,97,11.0,13.0,-999,-99.99,,,-99.99,,2013-05-23 11:22:00,
2013-05-23 03:32:00,34.0,-99.9,29.96,East,98,10.0,12.0,-999,-99.99,,,-99.99,,2013-05-23 11:32:00,
2013-05-23 03:42:00,34.0,-99.9,29.96,East,95,11.0,14.0,-999,-99.99,,,-99.99,,2013-05-23 11:42:00,
2013-05-23 03:52:00,33.0,-99.9,29.96,East,98,11.0,14.0,-999,-99.99,,,-99.99,,2013-05-23 11:52:00,
2013-05-23 04:02:00,34.0,-99.9,29.96,East,96,12.0,14.0,-999,-99.99,,,-99.99,,2013-05-23 12:02:00,
2013-05-23 04:12:00,33.0,-99.9,29.96,East,95,12.0,14.0,-999,-99.99,,,-99.99,,2013-05-23 12:12:00,
2013-05-23 04:22:00,33.0,-99.9,29.96,East,96,13.0,15.0,-999,-99.99,,,-99.99,,2013-05-23 12:22:00,
2013-05-23 04:33:00,34.0,-99.9,29.96,East,96,14.0,17.0,-999,-99.99,,,-99.99,,2013-05-23 12:33:00,
2013-05-23 04:42:00,34.0,-99.9,29.96,East,97,14.0,17.0,-999,-99.99,,,-99.99,,2013-05-23 12:42:00,
2013-05-23 04:52:00,34.0,-99.9,29.96,East,98,13.0,16.0,-999,-99.99,,,-99.99,,2013-05-23 12:52:00,
2013-05-23 05:02:00,34.0,-99.9,29.96,East,100,14.0,18.0,-999,-99.99,,,-99.99,,2013-05-23 13:02:00,
2013-05-23 05:11:00,34.0,-99.9,29.96,ESE,104,12.0,16.0,-999,-99.99,,,-99.99,,2013-05-23 13:11:00,
2013-05-23 05:22:00,34.0,-99.9,29.96,ESE,110,13.0,16.0,-999,-99.99,,,-99.99,,2013-05-23 13:22:00,
2013-05-23 05:32:00,34.0,-99.9,29.96,ESE,113,13.0,16.0,-999,-99.99,,,-99.99,,2013-05-23 13:32:00,
2013-05-23 05:42:00,34.0,-99.9,29.96,ESE,110,13.0,16.0,-999,-99.99,,,-99.99,,2013-05-23 13:42:00,
2013-05-23 05:52:00,33.0,-99.9,29.96,ESE,113,12.0,15.0,-999,-99.99,,,-99.99,,2013-05-23 13:52:00,
2013-05-23 06:02:00,34.0,-99.9,29.96,ESE,116,12.0,16.0,-999,-99.99,,,-99.99,,2013-05-23 14:02:00,
2013-05-23 06:11:00,34.0,-99.9,29.96,ESE,119,15.0,18.0,-999,-99.99,,,-99.99,,2013-05-23 14:11:00,
2013-05-23 06:22:00,34.0,-99.9,29.96,ESE,120,14.0,17.0,-999,-99.99,,,-99.99,,2013-05-23 14:22:00,
2013-05-23 06:32:00,33.0,-99.9,29.97,SE,124,15.0,18.0,-999,-99.99,,,-99.99,,2013-05-23 14:32:00,
2013-05-23 06:42:00,33.0,-99.9,29.97,SE,125,13.0,15.0,-999,-99.99,,,-99.99,,2013-05-23 14:42:00,
2013-05-23 06:52:00,33.0,-99.9,29.97,ESE,123,14.0,17.0,-999,-99.99,,,-99.99,,2013-05-23 14:52:00,
2013-05-23 07:01:00,33.0,-99.9,29.97,SE,125,13.0,17.0,-999,-99.99,,,-99.99,,2013-05-23 15:01:00,
2013-05-23 07:11:00,33.0,-99.9,29.97,SE,131,11.0,15.0,-999,-99.99,,,-99.99,,2013-05-23 15:11:00,
2013-05-23 07:22:00,33.0,-99.9,29.97,SE,130,12.0,15.0,-999,-99.99,,,-99.99,,2013-05-23 15:22:00,
2013-05-23 07:33:00,33.0,-99.9,29.97,SE,130,12.0,15.0,-999,-99.99,,,-99.99,,2013-05-23 15:33:00,
2013-05-23 07:43:00,33.0,-99.9,29.98,SE,138,11.0,13.0,-999,-99.99,,,-99.99,,2013-05-23 15:43:00,
2013-05-23 07:53:00,33.0,-99.9,29.98,SE,142,11.0,14.0,-999,-99.99,,,-99.99,,2013-05-23 15:53:00,
2013-05-23 08:03:00,33.0,-99.9,29.98,SE,139,12.0,15.0,-999,-99.99,,,-99.99,,2013-05-23 16:03:00,
2013-05-23 08:13:00,33.0,-99.9,29.98,SE,141,11.0,14.0,-999,-99.99,,,-99.99,,2013-05-23 16:13:00,
2013-05-23 08:23:00,33.0,-99.9,29.98,SE,143,11.0,14.0,-999,-99.99,,,-99.99,,2013-05-23 16:23:00,
2013-05-23 08:34:00,32.0,-99.9,29.99,SE,144,11.0,15.0,-999,-99.99,,,-99.99,,2013-05-23 16:34:00,
2013-05-23 08:43:00,32.0,-99.9,29.99,SE,142,12.0,15.0,-999,-99.99,,,-99.99,,2013-05-23 16:43:00,
2013-05-23 08:53:00,32.0,-99.9,29.99,SE,142,12.0,15.0,-999,-99.99,,,-99.99,,2013-05-23 16:53:00,
2013-05-23 09:03:00,32.0,-99.9,30.00,SE,136,11.0,14.0,-999,-99.99,,,-99.99,,2013-05-23 17:03:00,
2013-05-23 09:12:00,32.0,-99.9,30.00,SE,135,11.0,15.0,-999,-99.99,,,-99.99,,2013-05-23 17:12:00,
2013-05-23 09:23:00,32.0,-99.9,30.00,SE,139,11.0,15.0,-999,-99.99,,,-99.99,,2013-05-23 17:23:00,
2013-05-23 09:34:00,32.0,-99.9,30.00,SE,142,12.0,16.0,-999,-99.99,,,-99.99,,2013-05-23 17:34:00,
2013-05-23 09:43:00,-999.0,-99.9,30.01,SSE,149,12.0,14.0,-999,-99.99,,,-99.99,,2013-05-23 17:43:00,
2013-05-23 09:53:00,-999.0,-99.9,30.01,SE,146,11.0,14.0,-999,-99.99,,,-99.99,,2013-05-23 17:53:00,
2013-05-23 10:02:00,32.0,-99.9,30.01,SSE,150,11.0,14.0,-999,-99.99,,,-99.99,,2013-05-23 18:02:00,
2013-05-23 10:11:00,32.0,-99.9,30.01,SSE,152,11.0,13.0,-999,-99.99,,,-99.99,,2013-05-23 18:11:00,
2013-05-23 10:22:00,32.0,-99.9,30.02,SSE,151,10.0,12.0,-999,-99.99,,,-99.99,,2013-05-23 18:22:00,
2013-05-23 10:32:00,32.0,-99.9,30.02,SSE,151,11.0,12.0,-999,-99.99,,,-99.99,,2013-05-23 18:32:00,
2013-05-23 10:42:00,32.0,-99.9,30.02,SSE,151,11.0,12.0,-999,-99.99,,,-99.99,,2013-05-23 18:42:00,
2013-05-23 10:52:00,32.0,-99.9,30.03,SSE,158,9.0,12.0,-999,-99.99,,,-99.99,,2013-05-23 18:52:00,
2013-05-23 11:02:00,32.0,-99.9,30.03,South,170,8.0,10.0,-999,-99.99,,,-99.99,,2013-05-23 19:02:00,
2013-05-23 11:11:00,33.0,-99.9,30.03,South,171,9.0,12.0,-999,-99.99,,,-99.99,,2013-05-23 19:11:00,
2013-05-23 11:22:00,33.0,-99.9,30.03,SSE,167,10.0,12.0,-999,-99.99,,,-99.99,,2013-05-23 19:22:00,
2013-05-23 11:32:00,33.0,-99.9,30.04,South,175,11.0,13.0,-999,-99.99,,,-99.99,,2013-05-23 19:32:00,
2013-05-23 11:42:00,33.0,-99.9,30.04,South,176,10.0,14.0,-999,-99.99,,,-99.99,,2013-05-23 19:42:00,
2013-05-23 11:52:00,33.0,-99.9,30.04,South,171,8.0,12.0,-999,-99.99,,,-99.99,,2013-05-23 19:52:00,
2013-05-23 12:02:00,33.0,-99.9,30.05,South,191,12.0,15.0,-999,-99.99,,,-99.99,,2013-05-23 20:02:00,
2013-05-23 12:12:00,33.0,-99.9,30.05,South,191,12.0,15.0,-999,-99.99,,,-99.99,,2013-05-23 20:12:00,
2013-05-23 12:22:00,33.0,-99.9,30.05,South,182,11.0,15.0,-999,-99.99,,,-99.99,,2013-05-23 20:22:00,
2013-05-23 12:32:00,33.0,-99.9,30.06,South,182,11.0,14.0,-999,-99.99,,,-99.99,,2013-05-23 20:32:00,
2013-05-23 12:42:00,33.0,-99.9,30.06,South,188,11.0,15.0,-999,-99.99,,,-99.99,,2013-05-23 20:42:00,
2013-05-23 12:52:00,33.0,-99.9,30.06,South,171,9.0,14.0,-999,-99.99,,,-99.99,,2013-05-23 20:52:00,
2013-05-23 13:01:00,34.0,-99.9,30.07,South,176,8.0,9.0,-999,-99.99,,,-99.99,,2013-05-23 21:01:00,
2013-05-23 13:11:00,34.0,-99.9,30.07,South,171,8.0,10.0,-999,-99.99,,,-99.99,,2013-05-23 21:11:00,
2013-05-23 13:22:00,33.0,-99.9,30.07,SSE,161,8.0,11.0,-999,-99.99,,,-99.99,,2013-05-23 21:22:00,
2013-05-23 13:33:00,33.0,-99.9,30.08,SSE,160,9.0,10.0,-999,-99.99,,,-99.99,,2013-05-23 21:33:00,
2013-05-23 13:43:00,33.0,-99.9,30.08,SSE,163,9.0,11.0,-999,-99.99,,,-99.99,,2013-05-23 21:43:00,
2013-05-23 13:53:00,33.0,-99.9,30.09,SSE,165,9.0,11.0,-999,-99.99,,,-99.99,,2013-05-23 21:53:00,
2013-05-23 14:03:00,33.0,-99.9,30.09,SSE,156,9.0,11.0,-999,-99.99,,,-99.99,,2013-05-23 22:03:00,
2013-05-23 14:12:00,33.0,-99.9,30.09,SSE,153,9.0,11.0,-999,-99.99,,,-99.99,,2013-05-23 22:12:00,
2013-05-23 14:23:00,33.0,-99.9,30.09,SSE,157,9.0,11.0,-999,-99.99,,,-99.99,,2013-05-23 22:23:00,
2013-05-23 14:33:00,33.0,-99.9,30.09,SSE,160,9.0,12.0,-999,-99.99,,,-99.99,,2013-05-23 22:33:00,
2013-05-23 14:42:00,33.0,-99.9,30.09,SSE,157,9.0,11.0,-999,-99.99,,,-99.99,,2013-05-23 22:42:00,
2013-05-23 14:52:00,33.0,-99.9,30.10,SSE,152,8.0,10.0,-999,-99.99,,,-99.99,,2013-05-23 22:52:00,
2013-05-23 15:02:00,33.0,-99.9,30.11,SSE,150,9.0,11.0,-999,-99.99,,,-99.99,,2013-05-23 23:02:00,
2013-05-23 15:12:00,33.0,-99.9,30.11,SSE,148,9.0,11.0,-999,-99.99,,,-99.99,,2013-05-23 23:12:00,
2013-05-23 15:22:00,33.0,-99.9,30.11,SSE,152,11.0,12.0,-999,-99.99,,,-99.99,,2013-05-23 23:22:00,
2013-05-23 15:32:00,33.0,-99.9,30.11,SSE,152,11.0,13.0,-999,-99.99,,,-99.99,,2013-05-23 23:32:00,
2013-05-23 15:42:00,33.0,-99.9,30.11,SSE,147,10.0,13.0,-999,-99.99,,,-99.99,,2013-05-23 23:42:00,
2013-05-23 15:52:00,33.0,-99.9,30.11,SE,140,9.0,12.0,-999,-99.99,,,-99.99,,2013-05-23 23:52:00,
2013-05-23 16:01:00,33.0,-99.9,30.12,SSE,147,11.0,12.0,-999,-99.99,,,-99.99,,2013-05-24 00:01:00,
2013-05-23 16:12:00,33.0,-99.9,30.11,SE,145,10.0,13.0,-999,-99.99,,,-99.99,,2013-05-24 00:12:00,
2013-05-23 16:22:00,33.0,-99.9,30.12,SSE,147,11.0,13.0,-999,-99.99,,,-99.99,,2013-05-24 00:22:00,
2013-05-23 16:32:00,33.0,-99.9,30.12,SSE,149,11.0,13.0,-999,-99.99,,,-99.99,,2013-05-24 00:32:00,
2013-05-23 16:42:00,33.0,-99.9,30.12,SSE,149,11.0,14.0,-999,-99.99,,,-99.99,,2013-05-24 00:42:00,
2013-05-23 16:52:00,33.0,-99.9,30.12,SE,145,11.0,13.0,-999,-99.99,,,-99.99,,2013-05-24 00:52:00,
2013-05-23 17:01:00,33.0,-99.9,30.13,SSE,147,11.0,12.0,-999,-99.99,,,-99.99,,2013-05-24 01:01:00,
2013-05-23 17:12:00,33.0,-99.9,30.13,SSE,150,11.0,13.0,-999,-99.99,,,-99.99,,2013-05-24 01:12:00,
2013-05-23 17:22:00,33.0,-99.9,30.13,SSE,151,11.0,13.0,-999,-99.99,,,-99.99,,2013-05-24 01:22:00,
2013-05-23 17:32:00,33.0,-99.9,30.14,SSE,152,10.0,13.0,-999,-99.99,,,-99.99,,2013-05-24 01:32:00,
2013-05-23 17:42:00,33.0,-99.9,30.14,SSE,151,9.0,11.0,-999,-99.99,,,-99.99,,2013-05-24 01:42:00,
2013-05-23 17:52:00,33.0,-99.9,30.14,SSE,158,10.0,12.0,-999,-99.99,,,-99.99,,2013-05-24 01:52:00,
2013-05-23 18:02:00,33.0,-99.9,30.14,SSE,150,9.0,10.0,-999,-99.99,,,-99.99,,2013-05-24 02:02:00,
2013-05-23 18:12:00,33.0,-99.9,30.15,SSE,148,7.0,9.0,-999,-99.99,,,-99.99,,2013-05-24 02:12:00,
2013-05-23 18:22:00,33.0,-99.9,30.15,SSE,156,9.0,11.0,-999,-99.99,,,-99.99,,2013-05-24 02:22:00,
2013-05-23 18:32:00,33.0,-99.9,30.15,SSE,155,9.0,11.0,-999,-99.99,,,-99.99,,2013-05-24 02:32:00,
2013-05-23 18:42:00,33.0,-99.9,30.16,SSE,160,9.0,11.0,-999,-99.99,,,-99.99,,2013-05-24 02:42:00,
2013-05-23 18:52:00,33.0,-99.9,30.16,SSE,160,10.0,12.0,-999,-99.99,,,-99.99,,2013-05-24 02:52:00,
2013-05-23 19:02:00,33.0,-99.9,30.16,SSE,166,9.0,11.0,-999,-99.99,,,-99.99,,2013-05-24 03:02:00,
2013-05-23 19:11:00,33.0,-99.9,30.16,South,171,9.0,12.0,-999,-99.99,,,-99.99,,2013-05-24 03:11:00,
2013-05-23 19:22:00,33.0,-99.9,30.16,South,172,8.0,12.0,-999,-99.99,,,-99.99,,2013-05-24 03:22:00,
2013-05-23 19:33:00,33.0,-99.9,30.16,South,174,10.0,13.0,-999,-99.99,,,-99.99,,2013-05-24 03:33:00,
2013-05-23 19:43:00,33.0,-99.9,30.16,South,182,9.0,12.0,-999,-99.99,,,-99.99,,2013-05-24 03:43:00,
2013-05-23 19:53:00,33.0,-99.9,30.16,South,179,9.0,11.0,-999,-99.99,,,-99.99,,2013-05-24 03:53:00,
2013-05-23 20:03:00,33.0,-99.9,30.16,South,180,9.0,11.0,-999,-99.99,,,-99.99,,2013-05-24 04:03:00,
2013-05-23 20:13:00,33.0,-99.9,30.16,South,181,8.0,12.0,-999,-99.99,,,-99.99,,2013-05-24 04:13:00,
2013-05-23 20:23:00,33.0,-99.9,30.16,South,183,10.0,12.0,-999,-99.99,,,-99.99,,2013-05-24 04:23:00,
2013-05-23 20:33:00,33.0,-99.9,30.16,South,176,10.0,11.0,-999,-99.99,,,-99.99,,2013-05-24 04:33:00,
2013-05-23 20:42:00,33.0,-99.9,30.16,South,183,9.0,12.0,-999,-99.99,,,-99.99,,2013-05-24 04:42:00,
2013-05-23 20:53:00,33.0,-99.9,30.16,South,191,7.0,10.0,-999,-99.99,,,-99.99,,2013-05-24 04:53:00,
2013-05-23 21:02:00,33.0,-99.9,30.16,SSW,195,7.0,10.0,-999,-99.99,,,-99.99,,2013-05-24 05:02:00,
2013-05-23 21:12:00,33.0,-99.9,30.17,South,188,7.0,10.0,-999,-99.99,,,-99.99,,2013-05-24 05:12:00,
2013-05-23 21:22:00,33.0,-99.9,30.17,South,182,6.0,8.0,-999,-99.99,,,-99.99,,2013-05-24 05:22:00,
2013-05-23 21:32:00,33.0,-99.9,30.17,SSE,168,6.0,9.0,-999,-99.99,,,-99.99,,2013-05-24 05:32:00,
2013-05-23 21:42:00,33.0,-99.9,30.17,SSE,164,6.0,8.0,-999,-99.99,,,-99.99,,2013-05-24 05:42:00,
2013-05-23 21:52:00,33.0,-99.9,30.17,South,174,7.0,9.0,-999,-99.99,,,-99.99,,2013-05-24 05:52:00,
2013-05-23 22:02:00,33.0,-99.9,30.17,South,182,8.0,10.0,-999,-99.99,,,-99.99,,2013-05-24 06:02:00,
2013-05-23 22:12:00,33.0,-99.9,30.17,South,179,8.0,10.0,-999,-99.99,,,-99.99,,2013-05-24 06:12:00,
2013-05-23 22:22:00,33.0,-99.9,30.18,South,173,6.0,9.0,-999,-99.99,,,-99.99,,2013-05-24 06:22:00,
2013-05-23 22:32:00,33.0,-99.9,30.18,SSE,161,7.0,9.0,-999,-99.99,,,-99.99,,2013-05-24 06:32:00,
2013-05-23 22:42:00,33.0,-99.9,30.18,SSE,159,7.0,9.0,-999,-99.99,,,-99.99,,2013-05-24 06:42:00,
2013-05-23 22:52:00,33.0,-99.9,30.18,SSE,163,6.0,8.0,-999,-99.99,,,-99.99,,2013-05-24 06:52:00,
2013-05-23 23:02:00,33.0,-99.9,30.18,South,171,4.0,6.0,-999,-99.99,,,-99.99,,2013-05-24 07:02:00,
2013-05-23 23:11:00,33.0,-99.9,30.19,SSE,155,5.0,6.0,-999,-99.99,,,-99.99,,2013-05-24 07:11:00,
2013-05-23 23:22:00,33.0,-99.9,30.18,SE,145,5.0,6.0,-999,-99.99,,,-99.99,,2013-05-24 07:22:00,
2013-05-23 23:32:00,33.0,-99.9,30.19,SE,135,4.0,6.0,-999,-99.99,,,-99.99,,2013-05-24 07:32:00,
2013-05-23 23:42:00,33.0,-99.9,30.19,ESE,120,4.0,5.0,-999,-99.99,,,-99.99,,2013-05-24 07:42:00,
2013-05-23 23:52:00,32.0,-99.9,30.19,ESE,122,4.0,5.0,-999,-99.99,,,-99.99,,2013-05-24 07:52:00,